Location: Zagreb
(45.8000°N, 16.0000°E)
Time: 13:52:00
(UTC+02:00)

Tiros 1 despin weight - Pass Details

Date: 10 August 2022
Orbit: 590 x 639 km, 48.2° (Epoch: 23 September)

Event Time Altitude Azimuth Distance (km) Brightness Sun altitude
Rises 19:36:32 0° 287° (WNW) 2,822 ? 5.0°
Reaches altitude 10° 19:39:02 10° 276° (W) 1,917 ? 4.6°
Maximum altitude 19:42:48 28° 217° (SW) 1,104 ? 4.0°
Drops below altitude 10° 19:46:34 10° 157° (SSE) 1,916 ? 3.4°
Sets 19:49:04 0° 146° (SE) 2,819 ? 3.0°
